weather.gov     
National Weather Service

Regional Weather Roundup
NWS Homepage
This page is being discontinued on March 12, 2014.
The same data is available at this site. Please update your bookmarks.
Thank you, and we apologize for the inconvenience.
Please send an email to SR-SRH.Webmaster@noaa.gov with any concerns.


Current Version
Previous Version:    01  02  03  04  05  06  07  08  09  10  11  12  13  14  15  16  17  18  19  20  21  22  23  24  25  26  27  28  29  30  
   31  32  33  34  35  36  37  38  39  40  41  42  43  44  45  46  47  48  49  50  51  52  53  
[Printable]
137
ASUS44 KMEG 020210
RWRTN
TENNESSEE HOURLY STATE WEATHER ROUNDUP
NATIONAL WEATHER SERVICE MEMPHIS TN
900 PM CDT FRI AUG 01 2014

TNZ002-004-019-021-049-052-054-088>092-020300-
WEST TENNESSEE

CITY           SKY/WX    TMP DP  RH WIND       PRES   REMARKS
MEMPHIS INTL   PTCLDY    80  60  50 E6        30.02R
NWS MEMPHIS      N/A     75 N/A N/A MISG        N/A
JACKSON        CLOUDY    72  66  81 CALM      30.03R
DYERSBURG      MOCLDY    75  61  60 CALM      30.03S
UNION CITY     MOCLDY    72  70  94 CALM      30.03R
PARIS          CLOUDY    71  63  76 CALM      30.04S
LEXINGTON      MOCLDY    73  70  88 CALM      30.02S
SAVANNAH       CLEAR     71  71 100 CALM      30.03R
$$

TNZ008-025-027-028-033-062-065-066-020300-
NORTH MIDDLE TENNESSEE

CITY           SKY/WX    TMP DP  RH WIND       PRES   REMARKS
NASHVILLE      MOCLDY    79  63  57 CALM      30.04R
DICKSON        PTCLDY    75  66  73 CALM      30.05R
PORTLAND       CLEAR     72  61  68 CALM      30.05R
CLARKSVILLE    PTCLDY    78  58  49 N5        30.03R
LEBANON        PTCLDY    77  63  61 CALM      30.03R
SMYRNA         MOCLDY    75  68  79 CALM      30.04S
MURFREESBORO   MOCLDY    79  64  59 CALM      30.03R
COOKEVILLE     MOCLDY    73  70  88 CALM      30.07R
LIVINGSTON       N/A     72  61  68 CALM      30.08R
GALLATIN       PTCLDY    78  64  61 CALM      30.05R
CROSSVILLE     CLOUDY    71  64  78 CALM      30.11R
$$

TNZ061-075-076-078-094-096-097-020300-
SOUTH MIDDLE TENNESSEE

CITY           SKY/WX    TMP DP  RH WIND       PRES   REMARKS
LEWISBURG      MOCLDY    74  68  81 CALM      30.03S
FAYETTEVILLE   MOCLDY    73  64  73 E10       30.04S
TULLAHOMA      CLOUDY    73  63  68 CALM      30.07R
WINCHESTER     MOCLDY    70  70 100 CALM      30.06R
MCMINNVILLE    MOCLDY    73  72  94 CALM      30.06S
COLUMBIA       CLOUDY    77  70  78 CALM      30.03R
SHELBYVILLE    PTCLDY    73  70  88 CALM      30.06R
$$

TNZ017-018-042-046-047-020300-
NORTHEAST TENNESSEE

CITY           SKY/WX    TMP DP  RH WIND       PRES   REMARKS
TRI CITIES     PTCLDY    68  59  73 CALM      30.12R
ELIZABETHTON   CLEAR     64  57  77 E5        30.14R
$$

TNZ012-013-036-069-073-074-020300-
CENTRAL EAST TENNESSEE

CITY           SKY/WX    TMP DP  RH WIND       PRES   REMARKS
KNOXVILLE      MOCLDY    76  67  73 CALM      30.04R
OAK RIDGE      MOCLDY    76  67  73 CALM      30.06R
GATLINBURG     CLEAR     72  64  78 CALM      30.05S
MORRISTOWN     CLEAR     72  63  73 E8        30.09S
$$

TNZ083-085-099-020300-
SOUTHEAST TENNESSEE

CITY           SKY/WX    TMP DP  RH WIND       PRES   REMARKS
CHATTANOOGA    LGT RAIN  75  69  81 E6        30.06R
$$

SKY/WX REPORTED AS FAIR MEANS FEW OR NO CLOUDS BELOW
12 THOUSAND FEET.





U.S. Dept. of Commerce
NOAA National Weather Service
1325 East West Highway
Silver Spring, MD 20910
E-mail: w-nws.webmaster@noaa.gov
Page last modified: May 16, 2007
NATIONAL WEATHER SERVICE: for Safety, for Work, for Fun - FOR LIFE